Hourly Weather Kyzylkayyn

Today, 26 October, Monday

Time Temperature Precipitation Wind Pressure Humidity
00:00 +5°C° 0 mm 2 mps 722 mmHg 38%
01:00 +4°C° 0 mm 2 mps 722 mmHg 37%
02:00 +4°C° 0 mm 2 mps 722 mmHg 37%
03:00 +4°C° 0 mm 2 mps 722 mmHg 37%
04:00 +4°C° 0 mm 2 mps 721 mmHg 37%
05:00 +4°C° 0 mm 2 mps 721 mmHg 37%
06:00 +5°C° 0 mm 2 mps 721 mmHg 36%
07:00 +7°C° 0 mm 2 mps 721 mmHg 34%
08:00 +8°C° 0 mm 2 mps 721 mmHg 33%
09:00 +10°C° 0 mm 2 mps 721 mmHg 31%
10:00 +13°C° 0 mm 2 mps 720 mmHg 28%
11:00 +15°C° 0 mm 2 mps 720 mmHg 26%
12:00 +15°C° 0 mm 2 mps 719 mmHg 25%
13:00 +16°C° 0 mm 2 mps 719 mmHg 25%
14:00 +16°C° 0 mm 2 mps 718 mmHg 24%
15:00 +15°C° 0 mm 2 mps 717 mmHg 28%
16:00 +13°C° 0 mm 2 mps 717 mmHg 33%
17:00 +10°C° 0 mm 2 mps 717 mmHg 37%
18:00 +10°C° 0 mm 2 mps 716 mmHg 38%
19:00 +9°C° 0 mm 2 mps 716 mmHg 40%
20:00 +9°C° 0 mm 2 mps 716 mmHg 41%
21:00 +9°C° 0 mm 2 mps 716 mmHg 39%
22:00 +9°C° 0 mm 3 mps 716 mmHg 37%
23:00 +10°C° 0 mm 3 mps 715 mmHg 35%

Tomorrow, 27 October, Tuesday

Time Temperature Precipitation Wind Pressure Humidity
00:00 +9°C° 0 mm 2 mps 715 mmHg 35%
01:00 +10°C° 0 mm 1 mps 715 mmHg 36%
02:00 +9°C° 0 mm 1 mps 714 mmHg 36%
03:00 +9°C° 0 mm 1 mps 714 mmHg 36%
04:00 +8°C° 0 mm 2 mps 714 mmHg 36%
05:00 +8°C° 0 mm 2 mps 714 mmHg 36%
06:00 +10°C° 0 mm 2 mps 714 mmHg 33%
07:00 +11°C° 0 mm 3 mps 714 mmHg 31%
08:00 +12°C° 0 mm 3 mps 714 mmHg 28%
09:00 +16°C° 0 mm 2 mps 714 mmHg 25%
10:00 +18°C° 0 mm 2 mps 714 mmHg 21%
11:00 +21°C° 0 mm 1 mps 713 mmHg 17%
12:00 +21°C° 0 mm 1 mps 713 mmHg 17%
13:00 +22°C° 0 mm 1 mps 712 mmHg 17%
14:00 +22°C° 0 mm 1 mps 712 mmHg 16%
15:00 +20°C° 0 mm 1 mps 711 mmHg 21%
16:00 +17°C° 0 mm 2 mps 710 mmHg 27%
17:00 +15°C° 0 mm 2 mps 710 mmHg 32%
18:00 +14°C° 0 mm 2 mps 710 mmHg 35%
19:00 +13°C° 0 mm 2 mps 709 mmHg 39%
20:00 +12°C° 0 mm 2 mps 709 mmHg 42%
21:00 +12°C° 0 mm 3 mps 709 mmHg 38%
22:00 +12°C° 0 mm 3 mps 710 mmHg 33%
23:00 +13°C° 0 mm 4 mps 711 mmHg 29%

Day after tomorrow, 28 October, Wednesday

Time Temperature Precipitation Wind Pressure Humidity
00:00 +12°C° 0 mm 4 mps 711 mmHg 34%
01:00 +11°C° 0 mm 4 mps 712 mmHg 39%
02:00 +10°C° 0 mm 3 mps 712 mmHg 44%
03:00 +10°C° 0 mm 3 mps 712 mmHg 45%
04:00 +9°C° 0 mm 3 mps 713 mmHg 47%
05:00 +8°C° 0 mm 2 mps 713 mmHg 49%
06:00 +8°C° 0 mm 3 mps 713 mmHg 46%
07:00 +8°C° 0 mm 3 mps 714 mmHg 44%
08:00 +8°C° 0 mm 3 mps 714 mmHg 42%
09:00 +8°C° 0 mm 3 mps 714 mmHg 40%
10:00 +8°C° 0 mm 4 mps 714 mmHg 39%
11:00 +8°C° 0 mm 4 mps 715 mmHg 38%
12:00 +8°C° 0 mm 4 mps 715 mmHg 39%
13:00 +8°C° 0 mm 4 mps 715 mmHg 40%
14:00 +10°C° 0 mm 4 mps 715 mmHg 41%
15:00 +8°C° 0 mm 4 mps 716 mmHg 40%
16:00 +8°C° 0 mm 3 mps 716 mmHg 40%
17:00 +7°C° 0 mm 3 mps 717 mmHg 40%
18:00 +7°C° 0 mm 3 mps 717 mmHg 42%
19:00 +5°C° 0 mm 3 mps 718 mmHg 44%
20:00 +4°C° 0 mm 3 mps 718 mmHg 46%
21:00 +4°C° 0 mm 3 mps 718 mmHg 53%
22:00 +3°C° 0 mm 3 mps 718 mmHg 59%
23:00 +4°C° 0 mm 2 mps 718 mmHg 66%

29 October, Thursday

Time Temperature Precipitation Wind Pressure Humidity
00:00 +4°C° 0 mm 2 mps 718 mmHg 67%
01:00 +4°C° 0 mm 2 mps 719 mmHg 67%
02:00 +4°C° 0 mm 2 mps 719 mmHg 68%
03:00 +4°C° 0 mm 2 mps 719 mmHg 70%
04:00 +4°C° 0 mm 2 mps 719 mmHg 73%
05:00 +5°C° 0 mm 1 mps 719 mmHg 76%
06:00 +4°C° 0 mm 2 mps 720 mmHg 70%
07:00 +4°C° 0 mm 2 mps 720 mmHg 65%
08:00 +5°C° 0 mm 2 mps 720 mmHg 60%
09:00 +4°C° 0 mm 3 mps 720 mmHg 55%
10:00 +5°C° 0 mm 4 mps 720 mmHg 49%
11:00 +5°C° 0 mm 5 mps 720 mmHg 44%
12:00 +5°C° 0 mm 5 mps 721 mmHg 45%
13:00 +4°C° 0 mm 6 mps 721 mmHg 45%
14:00 +4°C° 0 mm 6 mps 721 mmHg 46%
15:00 +3°C° 0 mm 6 mps 722 mmHg 50%
16:00 +2°C° 0 mm 5 mps 722 mmHg 54%
17:00 +1°C° 0 mm 5 mps 723 mmHg 58%
18:00 +1°C° 0 mm 4 mps 723 mmHg 59%
19:00 0°C° 0 mm 4 mps 724 mmHg 60%
20:00 0°C° 0 mm 3 mps 724 mmHg 62%
21:00 0°C° 0 mm 3 mps 724 mmHg 63%
22:00 -1°C° 0 mm 3 mps 724 mmHg 65%
23:00 -1°C° 0 mm 3 mps 725 mmHg 67%

30 October, Friday

Time Temperature Precipitation Wind Pressure Humidity
00:00 -2°C° 0 mm 3 mps 725 mmHg 68%
01:00 -2°C° 0 mm 3 mps 725 mmHg 69%
02:00 -4°C° 0 mm 3 mps 725 mmHg 71%
03:00 -4°C° 0 mm 3 mps 726 mmHg 72%
04:00 -4°C° 0 mm 3 mps 726 mmHg 73%
05:00 -3°C° 0 mm 2 mps 726 mmHg 74%
06:00 -4°C° 0 mm 3 mps 727 mmHg 69%
07:00 -3°C° 0 mm 4 mps 727 mmHg 65%
08:00 -2°C° 0 mm 4 mps 727 mmHg 61%
09:00 -1°C° 0 mm 5 mps 728 mmHg 55%
10:00 0°C° 0 mm 5 mps 728 mmHg 50%
11:00 +1°C° 0 mm 6 mps 728 mmHg 44%
12:00 +2°C° 0 mm 6 mps 728 mmHg 42%
13:00 +2°C° 0 mm 5 mps 728 mmHg 40%
14:00 +3°C° 0 mm 5 mps 728 mmHg 37%
15:00 +3°C° 0 mm 4 mps 728 mmHg 42%
16:00 +2°C° 0 mm 3 mps 728 mmHg 46%
17:00 +1°C° 0 mm 2 mps 728 mmHg 50%
18:00 +1°C° 0 mm 2 mps 728 mmHg 52%
19:00 +1°C° 0 mm 2 mps 728 mmHg 54%
20:00 -1°C° 0 mm 2 mps 728 mmHg 56%
21:00 -1°C° 0 mm 2 mps 728 mmHg 57%
22:00 -1°C° 0 mm 2 mps 728 mmHg 58%
23:00 +1°C° 0 mm 1 mps 728 mmHg 58%

31 October, Saturday

Time Temperature Precipitation Wind Pressure Humidity
00:00 0°C° 0 mm 1 mps 727 mmHg 60%
01:00 0°C° 0 mm 1 mps 727 mmHg 62%
02:00 -1°C° 0 mm 1 mps 727 mmHg 64%
03:00 -1°C° 0 mm 1 mps 727 mmHg 66%
04:00 -2°C° 0 mm 1 mps 727 mmHg 67%
05:00 -2°C° 0 mm 1 mps 726 mmHg 69%
06:00 -1°C° 0 mm 1 mps 727 mmHg 62%
07:00 +1°C° 0 mm 1 mps 727 mmHg 55%
08:00 +1°C° 0 mm 2 mps 727 mmHg 49%
09:00 +3°C° 0 mm 2 mps 727 mmHg 45%
10:00 +4°C° 0 mm 2 mps 726 mmHg 40%
11:00 +5°C° 0 mm 3 mps 726 mmHg 36%
Show more

We Need Your Consent

Meteoprog and our Service Providers may store and access personal data such as cookies, device identifiers or other similar technologies on your device and process such data to personalise content and ads, as well as provide social media features and to analyse the traffic.

  • Store and/or access information on your device

    Cookies, device identifiers or other information can be stored or accessed on your device for the purposes indicated above.

  • Personalised ads and content, ad and content measurement, audience insights, and products development

    Ads and content can be personalised based on a profile. More data can be added to better personalise ads and content. Ad and content performance can be measured. Insights about the audience who saw the ads and content can be derived. Such data can be used to develop or improve user’s experience, systems and software.

By clicking ‘I Agree’ you will allow the use of indicated cookies, device identifiers, web beacons or other similar technologies. Your settings can be changed in the browser on your device.

For certain purposes, legitimate interests may be relied on, rather than consent. You can read more about this in our Privacy and Cookie Policy.